Location: Twillingate Astronomical Observatory
(49.6173°N, 54.7580°W)
Time: 18:00:44
(UTC-03:-30)

Amateur Radio Satellites - All Passes

Search period start: 24 November 2014 17:30
Search period end: 25 November 2014 17:30
Location: Twillingate Astronomical Observatory, 49.6173°N, 54.7580°W

Satellite Date Start Highest point End Downlink Frequencies (MHz)
Time Altitude Azimuth
CUTE-I 24 Nov 17:45:05 17:50:25 69° 257° (WSW) 17:55:47 437.470
JAS-2 24 Nov 18:11:21 18:17:25 25° 274° (W) 18:23:39 435.910
GONETS M04 24 Nov 18:14:16 18:22:19 37° 64° (ENE) 18:30:15
PHONESAT 2.4 24 Nov 18:23:09 18:25:54 20° 185° (S) 18:28:40 2401.200-2431.200
BRITE-PL 24 Nov 18:29:11 18:31:04 12° 56° (NE) 18:32:54 437.365/2234.400
CANX-2 24 Nov 18:32:45 18:34:18 12° 56° (NE) 18:35:51 2200.000
STRAND 1 24 Nov 18:36:22 18:41:08 37° 97° (E) 18:45:51 437.568
VERMONT LUNAR 24 Nov 18:41:12 18:43:37 17° 191° (SSW) 18:46:02 437.305
COMPASS 1 24 Nov 18:42:40 18:43:04 10° 55° (NE) 18:43:29 437.405
Cubesat XI-IV 24 Nov 18:44:41 18:48:57 24° 268° (W) 18:53:14 437.490
CUBESAT XI-V 24 Nov 18:45:51 18:50:25 48° 99° (E) 18:54:55 437.345
MOZHAYETS 4 24 Nov 18:47:19 18:50:40 20° 300° (WNW) 18:54:02
PRISM 24 Nov 18:58:11 19:02:22 54° 290° (WNW) 19:06:29 437.425
RS-15 24 Nov 19:03:35 19:14:07 51° 330° (NNW) 19:24:52 29.354- 29.394
CUTE 1.7 & AOD 2 24 Nov 19:05:40 19:08:52 21° 62° (ENE) 19:12:05 437.475
DOVE 4 24 Nov 19:11:27 19:14:04 15° 59° (ENE) 19:16:36 437.250
HO-68 24 Nov 19:12:11 19:19:02 49° 62° (ENE) 19:25:53 435.675
UKube-1 24 Nov 19:25:46 19:28:01 14° 56° (NE) 19:30:16 .
CUTE-I 24 Nov 19:30:19 19:31:30 11° 276° (W) 19:32:42 437.470
Oscar 11 24 Nov 19:37:30 19:40:23 18° 60° (ENE) 19:43:16 145.826/435.025
SEEDS 24 Nov 19:39:56 19:43:48 38° 68° (ENE) 19:47:43 437.485
GOMX 1 24 Nov 19:44:04 19:48:24 37° 68° (ENE) 19:52:30 467.674
PCSat 24 Nov 19:44:51 19:49:44 36° 114° (ESE) 19:54:40 145.827
CUBEBUG 2 24 Nov 19:44:52 19:46:46 13° 57° (ENE) 19:48:40 437.445
UWE-3 24 Nov 19:48:40 19:50:23 12° 57° (ENE) 19:52:06 435.000/436.395/437.385
DX 1 24 Nov 19:58:00 20:01:39 26° 63° (ENE) 20:05:18 434.975-435.025
CINEMA 3 24 Nov 19:58:06 20:01:38 25° 64° (ENE) 20:05:04 145.822/145.860
AIST 1 24 Nov 19:59:11 20:03:35 77° 98° (E) 20:08:02
AAUSAT CUBESAT 2 24 Nov 19:59:54 20:03:52 46° 70° (ENE) 20:07:53 437.432
PHONESAT 2.4 24 Nov 20:02:30 20:03:53 12° 201° (SSW) 20:05:17 2401.200-2431.200
BRITE-PL 24 Nov 20:03:57 20:08:56 75° 74° (ENE) 20:13:32 437.365/2234.400
CANX-2 24 Nov 20:05:20 20:09:33 83° 75° (ENE) 20:13:49 2200.000
GONETS M04 24 Nov 20:11:02 20:19:44 64° 268° (W) 20:28:21
DELFI C3 24 Nov 20:13:35 20:17:08 30° 66° (ENE) 20:20:43 145.870
COMPASS 1 24 Nov 20:13:53 20:18:02 71° 74° (ENE) 20:22:14 437.405
STRAND 1 24 Nov 20:15:40 20:20:18 36° 296° (WNW) 20:24:54 437.568
VELOX 1 24 Nov 20:21:47 20:24:41 17° 58° (ENE) 20:27:35 145.980
HUMSAT D 24 Nov 20:21:48 20:23:58 14° 58° (ENE) 20:26:08 437.325/437.525
50 SAT 24 Nov 20:21:58 20:23:24 12° 57° (ENE) 20:24:51 437.505
CUBESAT XI-V 24 Nov 20:23:49 20:27:36 25° 298° (WNW) 20:31:21 437.345
ZACube-1 24 Nov 20:25:27 20:28:44 23° 63° (ENE) 20:32:00 437.345
BEESAT 3 24 Nov 20:33:58 20:37:46 37° 120° (ESE) 20:41:39 437.485
CUTE 1.7 & AOD 2 24 Nov 20:40:27 20:44:32 47° 261° (W) 20:48:39 437.475
AISAT 24 Nov 20:45:58 20:49:45 27° 63° (ENE) 20:53:32 437.250
DOVE 4 24 Nov 20:46:47 20:51:23 77° 257° (WSW) 20:55:46 437.250
BEESAT 2 24 Nov 20:47:55 20:51:53 46° 122° (ESE) 20:55:55 435.950
UKube-1 24 Nov 20:59:12 21:03:34 87° 255° (WSW) 21:07:58 .
FUNcube-1 24 Nov 21:00:03 21:04:04 46° 70° (ENE) 21:08:04 145.935
HO-68 24 Nov 21:00:08 21:06:52 42° 262° (W) 21:13:39 435.675
CUBEBUG 1 24 Nov 21:05:41 21:08:37 18° 59° (ENE) 21:11:33 437.445
Oscar 11 24 Nov 21:11:52 21:16:08 63° 259° (WSW) 21:20:26 145.826/435.025
AIST 2 24 Nov 21:15:25 21:19:28 45° 122° (ESE) 21:23:36 435.215
SEEDS 24 Nov 21:16:20 21:19:47 25° 267° (W) 21:23:16 437.485
CUBEBUG 2 24 Nov 21:18:38 21:22:54 87° 256° (WSW) 21:27:07 437.445
RS-15 24 Nov 21:19:36 21:29:33 37° 3° (N) 21:39:45 29.354- 29.394
UWE-3 24 Nov 21:22:05 21:26:20 89° 75° (ENE) 21:30:32 435.000/436.395/437.385
GOMX 1 24 Nov 21:22:29 21:26:37 29° 265° (W) 21:30:33 467.674
PCSat 24 Nov 21:27:50 21:33:04 47° 314° (NW) 21:38:20 145.827
DX 1 24 Nov 21:33:36 21:37:44 40° 261° (W) 21:41:54 434.975-435.025
CINEMA 3 24 Nov 21:34:34 21:38:43 40° 262° (W) 21:42:44 145.822/145.860
ANTELSAT 24 Nov 21:35:38 21:37:24 12° 87° (E) 21:39:11 437.575/2403.000
AAUSAT CUBESAT 2 24 Nov 21:36:42 21:39:49 20° 268° (W) 21:42:57 437.432
AIST 1 24 Nov 21:39:26 21:41:51 14° 298° (WNW) 21:44:18
CANX-2 24 Nov 21:44:37 21:46:07 12° 274° (W) 21:47:37 2200.000
BRITE-PL 24 Nov 21:44:56 21:47:54 16° 270° (W) 21:50:45 437.365/2234.400
DELFI C3 24 Nov 21:48:49 21:52:25 30° 265° (W) 21:56:04 145.870
ESTCUBE 1 24 Nov 21:49:40 21:53:58 43° 68° (ENE) 21:58:18 437.505/2401.250
COMPASS 1 24 Nov 21:52:13 21:54:17 13° 272° (W) 21:56:22 437.405
50 SAT 24 Nov 21:54:04 21:58:06 89° 75° (ENE) 22:02:10 437.505
HUMSAT D 24 Nov 21:55:08 21:59:16 77° 257° (WSW) 22:03:24 437.325/437.525
VELOX 1 24 Nov 21:56:19 22:00:47 71° 257° (WSW) 22:05:17 145.980
ZACube-1 24 Nov 22:00:54 22:04:55 43° 262° (W) 22:08:55 437.345
POLYITAN 1 24 Nov 22:09:30 22:12:22 18° 91° (E) 22:15:13 437.675
GONETS M04 24 Nov 22:10:20 22:14:40 15° 291° (WNW) 22:19:00
QB50P2 24 Nov 22:12:02 22:15:02 19° 91° (E) 22:18:02 145.880/145.840
BEESAT 3 24 Nov 22:12:13 22:16:03 35° 320° (NW) 22:19:56 437.485
DUCHIFAT 1 24 Nov 22:18:55 22:22:09 21° 92° (E) 22:25:22 145.980
AISAT 24 Nov 22:22:01 22:26:15 40° 262° (W) 22:30:30 437.250
BEESAT 2 24 Nov 22:26:37 22:30:21 31° 323° (NW) 22:34:08 435.950
TIGRISAT 24 Nov 22:29:08 22:33:14 37° 97° (E) 22:37:24 435.000
TISAT 1 24 Nov 22:29:34 22:33:17 30° 65° (ENE) 22:36:59 437.305
SPROUT 24 Nov 22:34:44 22:38:28 29° 65° (ENE) 22:42:13 437.525
FUNcube-1 24 Nov 22:37:35 22:40:42 20° 268° (W) 22:43:48 145.935
NANOSAT C BR1 24 Nov 22:37:41 22:41:30 32° 96° (E) 22:45:17 145.865
CUSAT 1 24 Nov 22:38:39 22:41:45 19° 69° (ENE) 22:45:29 437.405
AUBIESAT-1 24 Nov 22:38:47 22:41:32 17° 50° (NE) 22:44:26 437.475
UKube-1 24 Nov 22:39:18 22:40:26 11° 273° (W) 22:41:33 .
CUBEBUG 1 24 Nov 22:40:06 22:44:32 68° 258° (WSW) 22:48:59 437.445
UNISAT 6 24 Nov 22:41:51 22:46:09 50° 100° (E) 22:50:32 437.425
M-CUBED/EXP-1 PRIME 24 Nov 22:42:38 22:45:39 19° 52° (NE) 22:48:50 437.505
QB50P1 24 Nov 22:47:16 22:51:16 40° 98° (E) 22:55:14 145.935-145.965
SWISSCUBE 24 Nov 22:49:18 22:51:20 13° 53° (NE) 22:53:21 437.505
AIST 2 24 Nov 22:54:23 22:58:15 32° 322° (NW) 23:02:11 435.215
DANDE 24 Nov 22:57:51 23:01:06 23° 71° (ENE) 23:05:08 436.750
UWE-3 24 Nov 23:02:43 23:03:31 10° 274° (W) 23:04:19 435.000/436.395/437.385
BUGSAT 1 24 Nov 23:05:37 23:09:39 50° 100° (E) 23:13:36 437.445
ANTELSAT 24 Nov 23:10:23 23:14:49 86° 285° (WNW) 23:19:20 437.575/2403.000
POPSAT HIP 1 24 Nov 23:11:45 23:15:59 71° 102° (ESE) 23:20:11 437.405
PCSat 24 Nov 23:14:21 23:17:50 17° 338° (NNW) 23:21:21 145.827
BEESAT 24 Nov 23:18:57 23:22:24 20° 59° (ENE) 23:25:52 436.000
ESTCUBE 1 24 Nov 23:27:15 23:31:01 25° 267° (W) 23:34:50 437.505/2401.250
RS-15 24 Nov 23:33:51 23:44:45 56° 35° (NE) 23:56:02 29.354- 29.394
POLYITAN 1 24 Nov 23:44:32 23:48:41 55° 289° (WNW) 23:52:48 437.675
QB50P2 24 Nov 23:47:10 23:51:17 51° 290° (WNW) 23:55:23 145.880/145.840
BEESAT 3 24 Nov 23:53:31 23:55:28 13° 343° (NNW) 23:57:25 437.485
DUCHIFAT 1 24 Nov 23:54:14 23:58:16 44° 291° (WNW) 00:02:16 145.980
TISAT 1 25 Nov 00:05:12 00:09:04 33° 264° (W) 00:12:58 437.305
TIGRISAT 25 Nov 00:06:10 00:09:54 28° 295° (WNW) 00:13:41 435.000
BEESAT 2 25 Nov 00:08:13 00:09:56 12° 345° (NNW) 00:11:39 435.950
KKS-1 25 Nov 00:09:36 00:11:50 14° 56° (NE) 00:14:05 437.445
SPROUT 25 Nov 00:10:33 00:14:30 34° 264° (W) 00:18:28 437.525
AUBIESAT-1 25 Nov 00:11:48 00:15:55 80° 251° (WSW) 00:20:27 437.475
ITUPSAT 1 25 Nov 00:12:11 00:16:52 52° 69° (ENE) 00:21:34 437.325
NANOSAT C BR1 25 Nov 00:13:40 00:17:22 30° 295° (WNW) 00:21:02 145.865
M-CUBED/EXP-1 PRIME 25 Nov 00:16:07 00:20:11 67° 253° (WSW) 00:24:41 437.505
MaSat-1 25 Nov 00:16:13 00:18:30 54° 57° (ENE) 00:20:49 437.345
Oscar 19 25 Nov 00:19:02 00:21:10 12° 85° (E) 00:23:17 437.125/150
UNISAT 6 25 Nov 00:19:19 00:22:41 22° 298° (WNW) 00:26:06 437.425
ISS 25 Nov 00:20:42 00:23:35 28° 145° (SE) 00:26:27 145.825
CUSAT 1 25 Nov 00:20:51 00:24:58 56° 261° (W) 00:30:29 437.405
QB50P1 25 Nov 00:23:33 00:27:00 25° 296° (WNW) 00:30:26 145.935-145.965
SWISSCUBE 25 Nov 00:23:34 00:28:21 71° 72° (ENE) 00:33:11 437.505
AIST 2 25 Nov 00:36:12 00:38:11 13° 345° (NNW) 00:40:10 435.215
DANDE 25 Nov 00:40:45 00:44:37 42° 262° (W) 00:49:43 436.750
BUGSAT 1 25 Nov 00:41:52 00:44:50 19° 299° (WNW) 00:47:46 437.445
POPSAT HIP 1 25 Nov 00:48:53 00:51:24 16° 301° (WNW) 00:53:56 437.405
ANTELSAT 25 Nov 00:48:57 00:51:00 13° 304° (WNW) 00:53:04 437.575/2403.000
BEESAT 25 Nov 00:55:02 00:59:48 66° 258° (WSW) 01:04:37 436.000
PCSat 25 Nov 01:01:20 01:03:36 12° 4° (N) 01:05:52 145.827
STARS 25 Nov 01:06:20 01:10:09 29° 65° (ENE) 01:13:58 437.465
ITAMSAT 1 25 Nov 01:08:40 01:11:18 14° 87° (E) 01:13:56 435.822/435.867
YUBILEINY 25 Nov 01:32:05 01:39:25 31° 81° (E) 01:46:44 435.215
Gurwin Techsat 1B 25 Nov 01:32:50 01:35:37 14° 86° (E) 01:38:22 435.225
BEESAT 3 25 Nov 01:34:38 01:35:32 11° 7° (N) 01:36:26 437.485
KKS-1 25 Nov 01:43:23 01:47:51 89° 75° (ENE) 01:52:20 437.445
RS-15 25 Nov 01:46:34 01:57:28 62° 242° (WSW) 02:08:51 29.354- 29.394
BEESAT 2 25 Nov 01:48:50 01:50:05 11° 10° (N) 01:51:19 435.950
ITUPSAT 1 25 Nov 01:51:16 01:55:04 23° 268° (W) 01:58:53 437.325
Oscar 19 25 Nov 01:56:09 02:01:21 80° 104° (ESE) 02:06:32 437.125/150
ISS 25 Nov 01:56:43 02:00:00 81° 344° (NNW) 02:03:19 145.825
SWISSCUBE 25 Nov 02:03:40 02:06:45 17° 271° (W) 02:09:51 437.505
AIST 2 25 Nov 02:17:11 02:18:41 12° 10° (N) 02:20:11 435.215
MOZHAYETS 4 25 Nov 02:40:53 02:43:29 15° 57° (ENE) 02:46:06
STARS 25 Nov 02:42:31 02:46:34 35° 263° (W) 02:50:38 437.465
PCSat 25 Nov 02:44:55 02:49:08 22° 30° (NNE) 02:53:21 145.827
ITAMSAT 1 25 Nov 02:46:21 02:51:35 88° 106° (ESE) 02:56:45 435.822/435.867
HORYU 2 25 Nov 02:47:12 02:50:59 26° 94° (E) 02:54:46 437.375
AO-7 25 Nov 03:01:38 03:07:32 21° 88° (E) 03:13:23 29.400- 29.500
Gurwin Techsat 1B 25 Nov 03:11:01 03:16:22 87° 105° (ESE) 03:21:41 435.225
BEESAT 3 25 Nov 03:12:00 03:15:18 22° 31° (NNE) 03:18:35 437.485
KKS-1 25 Nov 03:23:33 03:25:09 12° 273° (W) 03:26:46 437.445
BEESAT 2 25 Nov 03:26:20 03:29:50 24° 33° (NNE) 03:33:19 435.950
YUBILEINY 25 Nov 03:26:44 03:35:31 71° 283° (WNW) 03:44:19 435.215
JAS-2 25 Nov 03:33:19 03:35:07 11° 76° (ENE) 03:36:53 435.910
ISS 25 Nov 03:33:34 03:36:50 59° 4° (N) 03:40:06 145.825
Oscar 19 25 Nov 03:36:35 03:40:06 19° 304° (WNW) 03:43:38 437.125/150
SO-50 25 Nov 03:45:56 03:49:53 30° 117° (ESE) 03:53:57 436.795
AIST 2 25 Nov 03:55:12 03:58:48 25° 33° (NNE) 04:02:23 435.215
RS-15 25 Nov 04:01:26 04:07:27 16° 265° (W) 04:13:35 29.354- 29.394
MOZHAYETS 4 25 Nov 04:15:28 04:20:05 86° 256° (WSW) 04:24:45
PRISM 25 Nov 04:18:34 04:22:02 25° 63° (ENE) 04:25:31 437.425
CUBESAT XI-V 25 Nov 04:19:22 04:21:29 13° 55° (NE) 04:23:37 437.345
STRAND 1 25 Nov 04:20:13 04:23:11 16° 54° (NE) 04:26:10 437.568
HORYU 2 25 Nov 04:23:36 04:27:48 40° 293° (WNW) 04:32:00 437.375
ITAMSAT 1 25 Nov 04:27:04 04:30:24 18° 305° (NW) 04:33:43 435.822/435.867
PCSat 25 Nov 04:27:59 04:33:27 77° 53° (NE) 04:38:52 145.827
BEESAT 3 25 Nov 04:49:50 04:54:04 84° 232° (SW) 04:58:14 437.485
Gurwin Techsat 1B 25 Nov 04:52:10 04:55:41 18° 305° (NW) 04:59:10 435.225
AO-7 25 Nov 04:53:10 05:01:36 82° 109° (ESE) 05:09:59 29.400- 29.500
BEESAT 2 25 Nov 05:04:19 05:08:32 69° 234° (SW) 05:12:42 435.950
O/OREOS (USA 219) 25 Nov 05:05:53 05:07:43 12° 98° (E) 05:09:32 437.305
ISS 25 Nov 05:10:16 05:13:33 64° 204° (SSW) 05:16:49 145.825
JAS-2 25 Nov 05:14:49 05:22:02 57° 98° (E) 05:28:25 435.910
Cubesat XI-IV 25 Nov 05:17:16 05:20:35 17° 88° (E) 05:23:53 437.490
SO-50 25 Nov 05:25:48 05:30:15 49° 318° (NW) 05:34:52 436.795
YUBILEINY 25 Nov 05:28:11 05:34:13 20° 308° (NW) 05:40:15 435.215
AIST 2 25 Nov 05:33:33 05:37:52 70° 234° (SW) 05:42:07 435.215
CUBESAT XI-V 25 Nov 05:53:26 05:58:09 77° 74° (ENE) 06:02:54 437.345
PRISM 25 Nov 05:53:28 05:57:25 39° 262° (W) 06:01:26 437.425
MOZHAYETS 4 25 Nov 05:56:28 05:58:03 12° 275° (W) 05:59:38
STRAND 1 25 Nov 05:56:29 06:01:38 83° 73° (ENE) 06:06:49 437.568
CUTE-I 25 Nov 05:58:00 06:02:51 34° 96° (E) 06:07:39 437.470
AIST 1 25 Nov 06:02:22 06:06:18 30° 71° (ENE) 06:10:10
PCSat 25 Nov 06:12:22 06:16:17 21° 253° (WSW) 06:20:11 145.827
BEESAT 3 25 Nov 06:30:03 06:31:36 12° 251° (WSW) 06:33:09 437.485
O/OREOS (USA 219) 25 Nov 06:41:55 06:46:25 87° 297° (WNW) 06:50:55 437.305
AO-7 25 Nov 06:46:38 06:53:38 32° 311° (NW) 07:00:39 29.400- 29.500
ISS 25 Nov 06:47:47 06:49:42 15° 222° (SW) 06:51:37 145.825
Cubesat XI-IV 25 Nov 06:56:00 07:01:22 82° 287° (WNW) 07:06:41 437.490
JAS-2 25 Nov 07:00:10 07:06:45 36° 301° (WNW) 07:12:43 435.910
SO-50 25 Nov 07:08:46 07:11:55 17° 341° (NNW) 07:15:07 436.795
GONETS M04 25 Nov 07:21:41 07:29:16 34° 82° (E) 07:36:53
CUBESAT XI-V 25 Nov 07:33:27 07:36:11 15° 273° (W) 07:38:54 437.345
CUTE-I 25 Nov 07:38:02 07:43:00 41° 295° (WNW) 07:47:55 437.470
STRAND 1 25 Nov 07:38:25 07:41:29 16° 272° (W) 07:44:34 437.568
AIST 1 25 Nov 07:40:04 07:43:57 31° 270° (W) 07:47:46
CANX-2 25 Nov 07:48:54 07:50:12 11° 86° (E) 07:51:30 2200.000
BRITE-PL 25 Nov 08:05:51 08:08:03 14° 88° (E) 08:10:14 437.365/2234.400
UNISAT 6 25 Nov 08:12:29 08:13:42 11° 55° (NE) 08:14:55 437.425
CUTE 1.7 & AOD 2 25 Nov 08:22:02 08:25:25 22° 92° (E) 08:28:47 437.475
HO-68 25 Nov 08:22:34 08:28:56 33° 94° (E) 08:35:13 435.675
O/OREOS (USA 219) 25 Nov 08:23:43 08:26:31 16° 318° (NW) 08:29:20 437.305
POPSAT HIP 1 25 Nov 08:35:56 08:37:59 13° 57° (ENE) 08:40:02 437.405
Cubesat XI-IV 25 Nov 08:37:30 08:40:41 16° 307° (NW) 08:43:52 437.490
ANTELSAT 25 Nov 08:39:02 08:42:01 19° 60° (ENE) 08:45:02 437.575/2403.000
AO-7 25 Nov 08:41:28 08:43:49 11° 336° (NNW) 08:46:11 29.400- 29.500
DOVE 4 25 Nov 08:42:21 08:45:18 18° 91° (E) 08:48:16 437.250
UKube-1 25 Nov 08:45:01 08:46:33 12° 87° (E) 08:48:05 .
JAS-2 25 Nov 08:48:19 08:49:37 11° 324° (NW) 08:50:54 435.910
SO-50 25 Nov 08:51:54 08:54:20 14° 6° (N) 08:56:49 436.795
Oscar 11 25 Nov 08:55:50 08:58:50 18° 90° (E) 09:01:49 145.826/435.025
SEEDS 25 Nov 08:55:55 08:59:59 41° 98° (E) 09:04:01 437.485
CUBEBUG 2 25 Nov 09:06:52 09:09:07 14° 89° (E) 09:11:22 437.445
POLYITAN 1 25 Nov 09:07:09 09:10:38 25° 64° (ENE) 09:14:06 437.675
UWE-3 25 Nov 09:09:24 09:11:22 13° 88° (E) 09:13:21 435.000/436.395/437.385
QB50P2 25 Nov 09:09:29 09:13:02 26° 64° (ENE) 09:16:34 145.880/145.840
AAUSAT CUBESAT 2 25 Nov 09:14:44 09:18:51 48° 99° (E) 09:22:57 437.432
DUCHIFAT 1 25 Nov 09:16:01 09:19:42 29° 65° (ENE) 09:23:22 145.980
GONETS M04 25 Nov 09:16:47 09:25:32 66° 285° (WNW) 09:34:23
DX 1 25 Nov 09:17:58 09:21:35 25° 94° (E) 09:25:09 434.975-435.025
GOMX 1 25 Nov 09:19:07 09:23:12 54° 100° (E) 09:27:20 467.674
CANX-2 25 Nov 09:22:28 09:26:47 88° 284° (WNW) 09:31:06 2200.000
CINEMA 3 25 Nov 09:24:59 09:28:43 31° 96° (E) 09:32:32 145.822/145.860
DELFI C3 25 Nov 09:25:09 09:28:46 28° 95° (E) 09:32:22 145.870
COMPASS 1 25 Nov 09:29:17 09:33:33 76° 103° (ESE) 09:37:48 437.405
TIGRISAT 25 Nov 09:32:29 09:36:39 56° 71° (ENE) 09:40:50 435.000
NANOSAT C BR1 25 Nov 09:34:50 09:38:52 43° 69° (ENE) 09:42:54 145.865
HUMSAT D 25 Nov 09:37:05 09:39:06 13° 88° (E) 09:41:06 437.325/437.525
BRITE-PL 25 Nov 09:42:57 09:47:05 64° 287° (WNW) 09:51:12 437.365/2234.400
VELOX 1 25 Nov 09:44:05 09:46:55 16° 90° (E) 09:49:43 145.980
QB50P1 25 Nov 09:44:27 09:48:36 54° 71° (ENE) 09:52:46 145.935-145.965
ZACube-1 25 Nov 09:45:29 09:49:00 25° 94° (E) 09:52:33 437.345
UNISAT 6 25 Nov 09:45:30 09:49:46 76° 74° (ENE) 09:54:03 437.425
CUTE 1.7 & AOD 2 25 Nov 09:57:28 10:01:33 44° 290° (WNW) 10:05:38 437.475
BUGSAT 1 25 Nov 09:59:57 10:04:10 65° 73° (ENE) 10:08:22 437.445
POPSAT HIP 1 25 Nov 10:09:01 10:13:17 87° 256° (WSW) 10:17:34 437.405
AISAT 25 Nov 10:09:02 10:12:53 28° 95° (E) 10:16:42 437.250
HO-68 25 Nov 10:10:00 10:17:04 62° 295° (WNW) 10:24:04 435.675
ANTELSAT 25 Nov 10:14:17 10:18:29 56° 259° (W) 10:22:43 437.575/2403.000
UKube-1 25 Nov 10:18:59 10:23:22 87° 286° (WNW) 10:27:42 .
DOVE 4 25 Nov 10:19:23 10:23:24 49° 289° (WNW) 10:27:28 437.250
FUNcube-1 25 Nov 10:20:25 10:24:34 54° 100° (E) 10:28:46 145.935
CUBEBUG 1 25 Nov 10:26:06 10:28:57 17° 90° (E) 10:31:46 437.445
Oscar 11 25 Nov 10:31:06 10:35:22 56° 289° (WNW) 10:39:37 145.826/435.025
SEEDS 25 Nov 10:32:10 10:35:39 25° 296° (WNW) 10:39:07 437.485
SO-50 25 Nov 10:32:32 10:36:32 25° 30° (NNE) 10:40:34 436.795
CUBEBUG 2 25 Nov 10:42:07 10:46:18 69° 287° (WNW) 10:50:34 437.445
POLYITAN 1 25 Nov 10:42:24 10:46:25 40° 262° (W) 10:50:27 437.675
UWE-3 25 Nov 10:44:14 10:48:27 75° 286° (WNW) 10:52:44 435.000/436.395/437.385
QB50P2 25 Nov 10:44:50 10:48:49 38° 262° (W) 10:52:49 145.880/145.840
AAUSAT CUBESAT 2 25 Nov 10:51:04 10:54:16 21° 298° (WNW) 10:57:28 437.432
DUCHIFAT 1 25 Nov 10:51:39 10:55:31 33° 263° (W) 10:59:24 145.980
DX 1 25 Nov 10:53:53 10:57:58 40° 293° (WNW) 11:02:01 434.975-435.025
GOMX 1 25 Nov 10:58:12 11:01:01 18° 299° (WNW) 11:03:51 467.674
CANX-2 25 Nov 11:00:11 11:02:05 13° 303° (WNW) 11:04:00 2200.000
DELFI C3 25 Nov 11:00:24 11:04:06 32° 293° (WNW) 11:07:48 145.870
CINEMA 3 25 Nov 11:02:17 11:05:57 30° 294° (WNW) 11:09:41 145.822/145.860
50 SAT 25 Nov 11:06:03 11:10:08 86° 104° (ESE) 11:14:13 437.505
COMPASS 1 25 Nov 11:06:23 11:08:46 15° 301° (WNW) 11:11:09 437.405
TIGRISAT 25 Nov 11:10:58 11:13:48 17° 270° (W) 11:16:38 435.000
HUMSAT D 25 Nov 11:11:16 11:15:25 72° 286° (WNW) 11:19:35 437.325/437.525
NANOSAT C BR1 25 Nov 11:11:37 11:14:57 22° 267° (W) 11:18:18 145.865
ESTCUBE 1 25 Nov 11:14:51 11:19:19 51° 100° (E) 11:23:43 437.505/2401.250
GONETS M04 25 Nov 11:18:42 11:24:27 18° 310° (NW) 11:30:14
VELOX 1 25 Nov 11:19:33 11:23:57 64° 288° (WNW) 11:28:19 145.980
ZACube-1 25 Nov 11:21:37 11:25:30 37° 292° (WNW) 11:29:27 437.345
QB50P1 25 Nov 11:21:54 11:24:51 18° 269° (W) 11:27:48 145.935-145.965
UNISAT 6 25 Nov 11:25:13 11:27:09 13° 272° (W) 11:29:05 437.425
YUBILEINY 25 Nov 11:35:29 11:41:42 21° 53° (NE) 11:47:52 435.215
BUGSAT 1 25 Nov 11:37:37 11:40:06 15° 270° (W) 11:42:36 437.445
Oscar 19 25 Nov 11:39:15 11:43:36 29° 62° (ENE) 11:47:59 437.125/150
AISAT 25 Nov 11:45:32 11:49:36 36° 294° (WNW) 11:53:39 437.250
TISAT 1 25 Nov 11:45:56 11:49:37 28° 95° (E) 11:53:15 437.305
POPSAT HIP 1 25 Nov 11:49:11 11:49:52 10° 274° (W) 11:50:34 437.405
SPROUT 25 Nov 11:52:58 11:56:46 30° 95° (E) 12:00:33 437.525
UKube-1 25 Nov 11:56:52 11:58:52 13° 305° (NW) 12:00:52 .
FUNcube-1 25 Nov 11:57:38 12:00:36 19° 298° (WNW) 12:03:36 145.935
HO-68 25 Nov 11:59:06 12:03:26 17° 317° (NW) 12:07:46 435.675
CUBEBUG 1 25 Nov 12:01:25 12:05:45 61° 288° (WNW) 12:10:02 437.445
SO-50 25 Nov 12:12:48 12:17:41 88° 231° (SW) 12:22:36 436.795
AO-7 25 Nov 12:17:42 12:21:57 15° 32° (NNE) 12:26:11 29.400- 29.500
SWISSCUBE 25 Nov 12:21:27 12:23:50 14° 87° (E) 12:26:12 437.505
UWE-3 25 Nov 12:23:21 12:24:18 11° 305° (NW) 12:25:14 435.000/436.395/437.385
ITAMSAT 1 25 Nov 12:30:07 12:34:46 34° 63° (ENE) 12:39:26 435.822/435.867
50 SAT 25 Nov 12:43:08 12:44:52 13° 303° (WNW) 12:46:36 437.505
HUMSAT D 25 Nov 12:50:03 12:50:30 10° 305° (NW) 12:50:56 437.325/437.525
BEESAT 25 Nov 12:51:37 12:55:29 24° 93° (E) 12:59:19 436.000
ESTCUBE 1 25 Nov 12:52:21 12:55:54 23° 299° (WNW) 12:59:27 437.505/2401.250
Gurwin Techsat 1B 25 Nov 12:57:28 13:02:14 35° 64° (ENE) 13:07:00 435.225
VELOX 1 25 Nov 12:59:18 12:59:41 10° 308° (NW) 13:00:03 145.980
Oscar 19 25 Nov 13:17:51 13:22:46 47° 261° (W) 13:27:43 437.125/150
TISAT 1 25 Nov 13:21:42 13:25:30 33° 294° (WNW) 13:29:17 437.305
AUBIESAT-1 25 Nov 13:25:03 13:29:49 48° 104° (ESE) 13:34:31 437.475
SPROUT 25 Nov 13:29:03 13:32:53 32° 294° (WNW) 13:36:41 437.525
M-CUBED/EXP-1 PRIME 25 Nov 13:29:41 13:34:33 56° 106° (ESE) 13:39:22 437.505
O/OREOS (USA 219) 25 Nov 13:30:58 13:32:18 11° 36° (NE) 13:33:38 437.305
YUBILEINY 25 Nov 13:31:30 13:40:17 75° 78° (ENE) 13:48:57 435.215
KKS-1 25 Nov 13:32:08 13:34:11 13° 88° (E) 13:36:14 437.445
CUSAT 1 25 Nov 13:39:59 13:42:30 40° 286° (WNW) 13:45:02 437.405
ITUPSAT 1 25 Nov 13:46:15 13:51:05 70° 103° (ESE) 13:55:52 437.325
HORYU 2 25 Nov 13:49:57 13:54:07 41° 68° (ENE) 13:58:18 437.375
JAS-2 25 Nov 13:50:06 13:53:44 14° 41° (NE) 13:57:21 435.910
SO-50 25 Nov 13:54:45 13:57:36 16° 250° (WSW) 14:00:27 436.795
SWISSCUBE 25 Nov 13:57:32 14:02:23 87° 286° (WNW) 14:07:11 437.505
DANDE 25 Nov 14:02:51 14:05:09 25° 288° (WNW) 14:07:25 436.750
AO-7 25 Nov 14:04:59 14:12:40 44° 56° (NE) 14:20:23 29.400- 29.500
ITAMSAT 1 25 Nov 14:09:17 14:14:11 41° 262° (W) 14:19:08 435.822/435.867
RS-15 25 Nov 14:11:00 14:15:35 14° 93° (E) 14:20:08 29.354- 29.394
STARS 25 Nov 14:28:08 14:32:02 30° 96° (E) 14:35:55 437.465
BEESAT 25 Nov 14:28:57 14:33:36 50° 291° (WNW) 14:38:13 436.000
Gurwin Techsat 1B 25 Nov 14:37:08 14:42:08 41° 263° (W) 14:47:10 435.225
AUBIESAT-1 25 Nov 15:00:21 15:04:36 30° 303° (WNW) 15:08:50 437.475
M-CUBED/EXP-1 PRIME 25 Nov 15:05:13 15:09:17 27° 304° (NW) 15:13:21 437.505
KKS-1 25 Nov 15:06:58 15:11:26 81° 286° (WNW) 15:15:52 437.445
O/OREOS (USA 219) 25 Nov 15:08:25 15:12:48 52° 58° (ENE) 15:17:11 437.305
MaSat-1 25 Nov 15:22:50 15:25:36 40° 117° (ESE) 15:28:08 437.345
ITUPSAT 1 25 Nov 15:25:06 15:28:30 19° 302° (WNW) 15:31:52 437.325
HORYU 2 25 Nov 15:27:17 15:30:57 25° 266° (W) 15:34:39 437.375
YUBILEINY 25 Nov 15:29:13 15:36:16 29° 280° (W) 15:43:17 435.215
JAS-2 25 Nov 15:29:41 15:36:56 46° 63° (ENE) 15:44:16 435.910
SWISSCUBE 25 Nov 15:36:53 15:39:33 15° 305° (NW) 15:42:12 437.505
CUTE-I 25 Nov 15:46:58 15:50:14 17° 53° (NE) 15:53:31 437.470
AO-7 25 Nov 15:57:13 16:05:19 56° 258° (WSW) 16:13:30 29.400- 29.500
STARS 25 Nov 16:04:36 16:08:33 33° 294° (WNW) 16:12:29 437.465
MOZHAYETS 4 25 Nov 16:07:25 16:10:33 18° 89° (E) 16:13:39
PHONESAT 2.4 25 Nov 16:12:48 16:15:11 16° 166° (SSE) 16:17:34 2401.200-2431.200
RS-15 25 Nov 16:14:40 16:25:14 58° 117° (ESE) 16:35:49 29.354- 29.394
VERMONT LUNAR 25 Nov 16:26:11 16:28:46 18° 172° (S) 16:31:20 437.305
Cubesat XI-IV 25 Nov 16:43:03 16:48:03 42° 65° (ENE) 16:53:04 437.490
KKS-1 25 Nov 16:45:30 16:47:22 13° 305° (NW) 16:49:15 437.445
O/OREOS (USA 219) 25 Nov 16:48:30 16:51:52 21° 257° (WSW) 16:55:13 437.305
MaSat-1 25 Nov 16:58:52 17:00:18 13° 313° (NW) 17:01:40 437.345
HO-68 25 Nov 17:14:07 17:16:26 12° 36° (NE) 17:18:45 435.675
JAS-2 25 Nov 17:14:22 17:21:49 52° 263° (W) 17:29:29 435.910
